Torna al catalogo

STARLINK-5512

AttivoComunicazioniVLEO
NORAD 57256·PAYLOAD·🇺🇸 United States

Lanciato Jul 7, 2023 da Vandenberg Space Force Base

Loading…

Prossimi Passaggi (prossime 24 ore)

TLE

AggiornatoSource: CelesTrak SupGP

Epoca: Sep 15, 2026, 01:54 UTC

1 57256C 23094AQ  26258.07965278 -.00044522  00000+0 -16127-2 0  2585
2 57256  43.0029  30.3398 0001426 265.3859 125.9700 15.27598193    17

Traccia STARLINK-5512 in tempo reale con AllMySat

Download on the App Store